User: anonymous   Login
Location: Joplin
(37.0842°N, 94.5131°W)
Time: 10:43:29
(UTC-05:00)
Language:

ITAMSAT 1 - Orbit

View from above orbital plane
View from above orbital plane
View from above satellite
View from above satellite

Ground track
Ground track

The orbit data is extracted from the following two-line orbital elements,

1 22826U 93061D   19140.12247703 -.00000015  00000-0  12135-4 0  9993
2 22826  98.8961 128.0823 0010041  75.8818 284.3479 14.30391984337923
Epoch (UTC): 20 May 2019 02:56:22
Eccentricity: 0.0010041
inclination: 98.8961°
perigee height: 783 km
apogee height: 797 km
right ascension of ascending node: 128.0823°
argument of perigee: 75.8818°
revolutions per day: 14.30391984
mean anomaly at epoch: 284.3479°
orbit number at epoch: 33792

The dashed part of the orbit path shows where the satellite is in the earth's shadow,  

DLR